When you browse on this site, cookies collect data to enhance your experience and personalize the content and advertising you see.
Visit our Privacy Policy to learn more. By continuing to use the site, you agree to this use of cookies and data.
  • In Austria
  • List of Countries
  • For 7 days
  • Water Temperature
  • Satellite Maps
  • Weather Map
  • News
  • Weather Widgets
  • user-avatar
    Login

    Hourly Weather Santiago del Estero

    Today, 26 March, Tuesday

    Time Temperature Precipitation Wind Pressure Humidity
    00:00 +17°C° 0.4 mm 4 mps 747 mmHg 83%
    01:00 +17°C° 0.4 mm 4 mps 748 mmHg 84%
    02:00 +17°C° 0.4 mm 4 mps 748 mmHg 85%
    03:00 +15°C° 1.1 mm 4 mps 748 mmHg 86%
    04:00 +15°C° 1.1 mm 4 mps 748 mmHg 87%
    05:00 +15°C° 1.1 mm 4 mps 748 mmHg 88%
    06:00 +15°C° 0.3 mm 4 mps 748 mmHg 88%
    07:00 +15°C° 0.3 mm 4 mps 749 mmHg 87%
    08:00 +15°C° 0.3 mm 4 mps 749 mmHg 87%
    09:00 +15°C° 0.1 mm 4 mps 749 mmHg 85%
    10:00 +15°C° 0.1 mm 4 mps 750 mmHg 84%
    11:00 +16°C° 0.1 mm 3 mps 750 mmHg 82%
    12:00 +17°C° 0 mm 4 mps 750 mmHg 76%
    13:00 +18°C° 0 mm 4 mps 749 mmHg 71%
    14:00 +19°C° 0 mm 4 mps 749 mmHg 65%
    15:00 +19°C° 0 mm 4 mps 749 mmHg 63%
    16:00 +19°C° 0 mm 3 mps 749 mmHg 62%
    17:00 +19°C° 0 mm 3 mps 748 mmHg 61%
    18:00 +18°C° 0 mm 3 mps 749 mmHg 66%
    19:00 +17°C° 0 mm 2 mps 749 mmHg 72%
    20:00 +15°C° 0 mm 2 mps 749 mmHg 77%
    21:00 +15°C° 0 mm 2 mps 750 mmHg 78%
    22:00 +15°C° 0 mm 2 mps 750 mmHg 79%
    23:00 +15°C° 0 mm 2 mps 750 mmHg 80%

    Tomorrow, 27 March, Wednesday

    Time Temperature Precipitation Wind Pressure Humidity
    00:00 +15°C° 0.1 mm 1 mps 750 mmHg 81%
    01:00 +15°C° 0.1 mm 1 mps 750 mmHg 82%
    02:00 +15°C° 0.1 mm 1 mps 750 mmHg 84%
    03:00 +15°C° 0 mm 1 mps 750 mmHg 84%
    04:00 +15°C° 0 mm 1 mps 750 mmHg 84%
    05:00 +15°C° 0 mm 1 mps 750 mmHg 84%
    06:00 +16°C° 0 mm 1 mps 750 mmHg 83%
    07:00 +16°C° 0 mm 1 mps 750 mmHg 81%
    08:00 +18°C° 0 mm 1 mps 750 mmHg 80%
    09:00 +18°C° 0 mm 1 mps 750 mmHg 76%
    10:00 +19°C° 0 mm 1 mps 751 mmHg 73%
    11:00 +19°C° 0 mm 2 mps 751 mmHg 70%
    12:00 +21°C° 0 mm 2 mps 750 mmHg 63%
    13:00 +24°C° 0 mm 3 mps 749 mmHg 56%
    14:00 +26°C° 0 mm 3 mps 749 mmHg 49%
    15:00 +26°C° 0 mm 3 mps 748 mmHg 48%
    16:00 +26°C° 0 mm 3 mps 748 mmHg 48%
    17:00 +26°C° 0 mm 3 mps 747 mmHg 48%
    18:00 +25°C° 0 mm 3 mps 747 mmHg 53%
    19:00 +23°C° 0 mm 2 mps 748 mmHg 58%
    20:00 +21°C° 0 mm 2 mps 748 mmHg 62%
    21:00 +21°C° 0 mm 2 mps 748 mmHg 62%
    22:00 +21°C° 0 mm 2 mps 749 mmHg 62%
    23:00 +22°C° 0 mm 1 mps 749 mmHg 62%

    Day after tomorrow, 28 March, Thursday

    Time Temperature Precipitation Wind Pressure Humidity
    00:00 +21°C° 0 mm 1 mps 749 mmHg 64%
    01:00 +21°C° 0 mm 1 mps 748 mmHg 65%
    02:00 +21°C° 0 mm 1 mps 748 mmHg 67%
    03:00 +21°C° 0 mm 1 mps 748 mmHg 67%
    04:00 +21°C° 0 mm 1 mps 747 mmHg 67%
    05:00 +21°C° 0 mm 1 mps 747 mmHg 67%
    06:00 +21°C° 0 mm 1 mps 747 mmHg 65%
    07:00 +21°C° 0 mm 2 mps 748 mmHg 64%
    08:00 +21°C° 0 mm 2 mps 748 mmHg 62%
    09:00 +25°C° 0 mm 2 mps 748 mmHg 57%
    10:00 +27°C° 0 mm 3 mps 748 mmHg 52%
    11:00 +29°C° 0 mm 4 mps 748 mmHg 47%
    12:00 +30°C° 0 mm 4 mps 747 mmHg 44%
    13:00 +32°C° 0 mm 4 mps 746 mmHg 41%
    14:00 +33°C° 0 mm 4 mps 746 mmHg 38%
    15:00 +33°C° 0 mm 4 mps 745 mmHg 38%
    16:00 +33°C° 0 mm 3 mps 745 mmHg 39%
    17:00 +33°C° 0 mm 3 mps 744 mmHg 39%
    18:00 +30°C° 0 mm 2 mps 745 mmHg 44%
    19:00 +28°C° 0 mm 2 mps 745 mmHg 48%
    20:00 +26°C° 0 mm 1 mps 746 mmHg 53%
    21:00 +26°C° 0 mm 2 mps 746 mmHg 55%
    22:00 +25°C° 0 mm 2 mps 746 mmHg 57%
    23:00 +24°C° 0 mm 2 mps 746 mmHg 59%

    29 March, Friday

    Time Temperature Precipitation Wind Pressure Humidity
    00:00 +24°C° 0 mm 2 mps 746 mmHg 62%
    01:00 +23°C° 0 mm 2 mps 745 mmHg 66%
    02:00 +21°C° 0 mm 2 mps 745 mmHg 69%
    03:00 +21°C° 0 mm 2 mps 745 mmHg 72%
    04:00 +20°C° 0 mm 2 mps 744 mmHg 74%
    05:00 +20°C° 0 mm 2 mps 744 mmHg 76%
    06:00 +20°C° 0 mm 2 mps 744 mmHg 74%
    07:00 +21°C° 0 mm 2 mps 744 mmHg 72%
    08:00 +23°C° 0 mm 2 mps 744 mmHg 70%
    09:00 +25°C° 0 mm 2 mps 744 mmHg 63%
    10:00 +28°C° 0 mm 3 mps 744 mmHg 55%
    11:00 +30°C° 0 mm 3 mps 743 mmHg 48%
    12:00 +33°C° 0 mm 4 mps 742 mmHg 44%
    13:00 +34°C° 0 mm 5 mps 741 mmHg 40%
    14:00 +36°C° 0 mm 6 mps 740 mmHg 36%
    15:00 +36°C° 0 mm 6 mps 739 mmHg 37%
    16:00 +35°C° 0 mm 6 mps 739 mmHg 38%
    17:00 +35°C° 0 mm 5 mps 738 mmHg 39%
    18:00 +33°C° 0 mm 4 mps 738 mmHg 44%
    19:00 +32°C° 0 mm 4 mps 738 mmHg 50%
    20:00 +29°C° 0 mm 3 mps 739 mmHg 55%
    21:00 +29°C° 0 mm 3 mps 739 mmHg 56%
    22:00 +28°C° 0 mm 3 mps 739 mmHg 57%
    23:00 +28°C° 0 mm 2 mps 739 mmHg 58%

    30 March, Saturday

    Time Temperature Precipitation Wind Pressure Humidity
    00:00 +28°C° 0 mm 3 mps 739 mmHg 59%
    01:00 +28°C° 0 mm 3 mps 739 mmHg 61%
    02:00 +28°C° 0 mm 3 mps 738 mmHg 63%
    03:00 +28°C° 0 mm 3 mps 738 mmHg 67%
    04:00 +27°C° 0 mm 3 mps 738 mmHg 70%
    05:00 +27°C° 0 mm 3 mps 738 mmHg 74%
    06:00 +28°C° 0 mm 4 mps 738 mmHg 73%
    07:00 +28°C° 0 mm 4 mps 739 mmHg 71%
    08:00 +29°C° 0 mm 4 mps 739 mmHg 70%
    09:00 +30°C° 0 mm 4 mps 739 mmHg 64%
    10:00 +33°C° 0 mm 5 mps 739 mmHg 57%
    11:00 +35°C° 0 mm 5 mps 739 mmHg 51%
    12:00 +35°C° 0 mm 4 mps 739 mmHg 50%
    13:00 +36°C° 0 mm 3 mps 738 mmHg 49%
    14:00 +36°C° 0 mm 2 mps 738 mmHg 49%
    15:00 +36°C° 0 mm 2 mps 738 mmHg 48%
    16:00 +36°C° 0 mm 2 mps 738 mmHg 48%
    17:00 +35°C° 0 mm 1 mps 738 mmHg 48%
    18:00 +34°C° 0 mm 2 mps 739 mmHg 55%
    19:00 +31°C° 0 mm 3 mps 739 mmHg 63%
    20:00 +29°C° 0 mm 4 mps 740 mmHg 70%
    21:00 +28°C° 0.1 mm 3 mps 740 mmHg 74%
    22:00 +27°C° 0.1 mm 3 mps 741 mmHg 79%
    23:00 +27°C° 0.1 mm 3 mps 741 mmHg 83%

    31 March, Sunday

    Time Temperature Precipitation Wind Pressure Humidity
    00:00 +26°C° 0 mm 3 mps 741 mmHg 85%
    01:00 +26°C° 0 mm 3 mps 741 mmHg 87%
    02:00 +26°C° 0 mm 3 mps 741 mmHg 89%
    03:00 +25°C° 0 mm 3 mps 741 mmHg 89%
    04:00 +25°C° 0 mm 3 mps 740 mmHg 89%
    05:00 +24°C° 0 mm 3 mps 740 mmHg 90%
    06:00 +25°C° 0 mm 3 mps 741 mmHg 86%
    07:00 +26°C° 0 mm 3 mps 741 mmHg 81%
    08:00 +26°C° 0 mm 3 mps 741 mmHg 77%
    09:00 +28°C° 0 mm 3 mps 741 mmHg 68%
    10:00 +30°C° 0 mm 3 mps 741 mmHg 59%
    11:00 +33°C° 0 mm 3 mps 741 mmHg 49%
    12:00 +34°C° 0 mm 3 mps 740 mmHg 45%
    13:00 +35°C° 0 mm 4 mps 739 mmHg 41%
    14:00 +36°C° 0 mm 4 mps 739 mmHg 37%
    15:00 +36°C° 0 mm 4 mps 738 mmHg 37%
    16:00 +35°C° 0 mm 4 mps 738 mmHg 37%
    17:00 +35°C° 0 mm 4 mps 738 mmHg 37%
    18:00 +33°C° 0 mm 4 mps 738 mmHg 40%
    19:00 +31°C° 0 mm 3 mps 739 mmHg 43%
    20:00 +29°C° 0 mm 3 mps 740 mmHg 46%
    21:00 +29°C° 0 mm 3 mps 740 mmHg 50%
    22:00 +28°C° 0 mm 3 mps 740 mmHg 53%
    23:00 +28°C° 0 mm 2 mps 741 mmHg 56%
    Show more